, FL

(GMT )
Crestview

Weather History for KEGI - June, 2013

Change the Weather History Date:

Saturday, June 8, 2013

  Actual Average Record
Temperature  
Mean Temperature 78 °F -  
Max Temperature 88 °F - - ()
Min Temperature 68 °F - - ()
Cooling Degree Days 13    
Growing Degree Days 28 (Base 50)    
Moisture  
Dew Point 71 °F    
Average Humidity 77    
Maximum Humidity 100    
Minimum Humidity 52    
Precipitation  
Precipitation 0.02 in - - ()
Sea Level Pressure  
Sea Level Pressure 29.99 in    
Wind  
Wind Speed 5 mph (SSE)    
Max Wind Speed 14 mph    
Max Gust Speed -    
Visibility 10 miles    
Events Thunderstorm    
T = Trace of Precipitation, MM = Missing Value Source: NWS Daily Summary

Daily Weather History Graph

Daily Weather History Graph

Search for Another Location

Airport or City:

Trip Planner

Search our weather history database for the weather conditions in past years. The results will help you decide how hot, cold, wet, or windy it might be!

Date:

Astronomy

Jun. 08, 2013 Rise Set
Actual Time 5:42 AM CDT 7:47 PM CDT
Civil Twilight 5:15 AM CDT 8:15 PM CDT
Nautical Twilight 4:41 AM CDT 8:48 PM CDT
Astronomical Twilight 4:06 AM CDT 9:24 PM CDT
Moon 5:46 AM CDT (6/8) 7:53 PM CDT (6/8)
Length of Visible Light 14h 59m
Length of Day
14h 04m
New Moon, 0% of the Moon is Illuminated
Jun 8
New Moon
Jun 16
First Quarter
Jun 23
Full
Jun 29
Last Quarter
Jul 8
New

Hourly Weather History & Observations

Time (CDT) Temp. Heat Index Dew Point Humidity Pressure Visibility Wind Dir Wind Speed Gust Speed Precip Events Conditions
12:58 AM 71.8 °F - 71.2 °F 98% 29.93 in 10.0 mi NNW 2.3 mph - N/A   Clear
1:58 AM 70.9 °F - 70.5 °F 99% 29.93 in 10.0 mi Calm Calm - N/A   Clear
2:58 AM 69.6 °F - 69.3 °F 99% 29.91 in 10.0 mi Calm Calm - N/A   Clear
3:58 AM 68.5 °F - 68.2 °F 99% 29.91 in 10.0 mi Calm Calm - N/A   Clear
4:58 AM 68.5 °F - 68.4 °F 99% 29.94 in 9.0 mi Calm Calm - N/A   Mostly Cloudy
5:28 AM 69.8 °F - 69.8 °F 100% 29.94 in 10.0 mi East 2.3 mph - N/A   Scattered Clouds
5:58 AM 69.4 °F - 68.9 °F 98% 29.96 in 10.0 mi Calm Calm - N/A   Scattered Clouds
6:58 AM 71.2 °F - 68.7 °F 92% 29.99 in 10.0 mi ENE 1.2 mph - N/A   Clear
7:58 AM 75.2 °F - 69.3 °F 82% 29.99 in 10.0 mi East 5.8 mph - N/A   Clear
8:55 AM 80.1 °F 83.8 °F 72.0 °F 76% 30.01 in 10.0 mi SSE 2.3 mph - N/A   Mostly Cloudy
9:55 AM 82.2 °F 86.0 °F 69.6 °F 66% 29.99 in 10.0 mi South 6.9 mph - N/A   Mostly Cloudy
10:55 AM 85.3 °F 88.8 °F 68.4 °F 57% 30.01 in 10.0 mi SSE 6.9 mph - N/A   Mostly Cloudy
11:55 AM 86.2 °F 90.7 °F 69.6 °F 58% 30.01 in 10.0 mi SSE 6.9 mph - N/A   Mostly Cloudy
12:55 PM 86.2 °F 90.7 °F 69.6 °F 58% 29.99 in 10.0 mi South 10.4 mph - N/A   Mostly Cloudy
1:33 PM 87.8 °F 92.6 °F 69.8 °F 55% 29.98 in 10.0 mi SSW 12.7 mph - N/A   Scattered Clouds
1:58 PM 88.3 °F 93.6 °F 70.3 °F 55% 29.99 in 10.0 mi South 11.5 mph - N/A   Scattered Clouds
2:58 PM 88.5 °F 92.7 °F 69.1 °F 52% 29.97 in 10.0 mi SSW 10.4 mph - N/A   Clear
3:58 PM 88.3 °F 93.6 °F 70.2 °F 55% 29.96 in 10.0 mi South 11.5 mph - N/A   Clear
4:45 PM 87.8 °F 93.8 °F 71.6 °F 58% 29.95 in 10.0 mi SSE 13.8 mph - N/A   Clear
4:58 PM 87.3 °F 93.6 °F 71.6 °F 60% 29.96 in 10.0 mi South 12.7 mph - N/A   Clear
5:58 PM 84.6 °F 88.8 °F 70.0 °F 61% 29.99 in 10.0 mi SSW 12.7 mph - N/A   Partly Cloudy
6:58 PM 83.1 °F 87.6 °F 70.9 °F 66% 30.01 in 10.0 mi South 11.5 mph - N/A   Clear
7:58 PM 80.4 °F 84.4 °F 71.8 °F 75% 30.01 in 10.0 mi South 9.2 mph - N/A   Clear
8:58 PM 78.3 °F - 72.1 °F 81% 30.01 in 10.0 mi SSE 5.8 mph - N/A   Clear
9:58 PM 77.9 °F - 73.2 °F 85% 30.04 in 10.0 mi SSE 5.8 mph - N/A   Clear
10:58 PM 78.4 °F - 72.9 °F 83% 30.04 in 10.0 mi SSE 6.9 mph - N/A   Mostly Cloudy
11:14 PM 78.8 °F - 71.6 °F 78% 30.05 in 10.0 mi SSE 8.1 mph - N/A   Light Drizzle
11:54 PM 75.2 °F - 73.4 °F 94% 30.05 in 10.0 mi South 6.9 mph - N/A Thunderstorm Scattered Clouds
11:58 PM 75.9 °F - 73.0 °F 91% 30.05 in 10.0 mi South 6.9 mph - 0.02 in Thunderstorm Scattered Clouds